Content
SEND FEEDBACK

Daily
Averages
Monthly
Summary
United States of America

ROLLA, MISSOURI


Home > North America > United States > Missouri
Elevation: 1095 feet     Latitude: 38 07N     Longitude: 091 46W

WEATHER
 
SELECT A DAY
Number of Records: 201,754;   Date Range: 1/1/95 - 9/20/14
 
SHARE

PRINT THIS DATA

[ ← Previous Day ]
WEATHER ALMANAC - OCTOBER 12, 2013
[ Next Day → ]
[ °C ]   °F
Weather ElementAverageHighLow
Temperature62.7 °F71.1 °F (3:53 pm)48.9 °F (10:53 pm)
Dewpoint53.4 °F60.1 °F (6:53 am)39.9 °F (11:53 pm)
Humidity72.9 %93 % (5:53 am)47 % (5:53 pm)
Barometer30.05 in30.20 in (11:53 pm)29.91 in (2:53 am)
Wind Speed7.3 mph11.5 mph (7:53 am)
Weather ElementAverage
Visibility9.8 mi
Wind DirectionWSW (245.2 °)

Weather ElementTotal
Precipitation---
Heating Degree Days5 (Base 65)
Growing Degree Days10 (Base 50)
Averaged from 23 records on October 12, 2013
WEATHER CONDITIONS BREAKOUT
WIND DIRECTION BREAKOUT
WEATHER BY HOUR - OCTOBER 12, 2013
[ °C ]   °F
Local TimeTemperatureDewpointHumidityBarometerVisibilityWind DirectionWind SpeedGust SpeedPrecipitationEventsConditions
1:53 AM64.9 °F59.0 °F81 %29.92 in10.0 miSouth (190°)10.4 mphMostly Cloudy
2:53 AM64.9 °F59.0 °F81 %29.91 in10.0 miSouth (180°)9.2 mphScattered Clouds
3:53 AM64.0 °F59.0 °F84 %29.91 in10.0 miSSW (210°)6.9 mphClear
4:53 AM63.0 °F59.0 °F87 %29.94 in9.0 miWest (260°)9.2 mphMostly Cloudy
5:53 AM61.0 °F59.0 °F93 %29.96 in8.0 miSW (230°)5.8 mphClear
6:53 AM63.0 °F60.1 °F90 %29.98 in8.0 miWSW (250°)10.4 mphOvercast
7:53 AM62.1 °F57.0 °F84 %29.99 in10.0 miWest (270°)11.5 mphOvercast
8:53 AM62.1 °F57.9 °F86 %29.99 in10.0 miSSW (210°)3.5 mphOvercast
9:53 AM63.0 °F57.9 °F84 %30.02 in10.0 miWest (280°)9.2 mphClear
10:53 AM64.0 °F57.9 °F80 %30.04 in10.0 miWNW (300°)9.2 mphClear
11:53 AM70.0 °F57.0 °F63 %30.05 in10.0 miWNW (290°)9.2 mphClear
12:53 PM69.1 °F59.0 °F70 %30.07 in10.0 miWest (270°)8.1 mphScattered Clouds
1:53 PM68.0 °F57.9 °F70 %30.07 in10.0 miNW (310°)9.2 mphPartly Cloudy
2:53 PM70.0 °F55.9 °F61 %30.07 in10.0 miNW (310°)9.2 mphClear
3:53 PM71.1 °F55.0 °F57 %30.07 in10.0 miNNW (340°)11.5 mphClear
4:53 PM71.1 °F52.0 °F51 %30.08 in10.0 miNNW (330°)10.4 mphClear
5:53 PM68.0 °F46.9 °F47 %30.09 in10.0 miNorthClear
6:53 PM61.0 °F46.0 °F58 %30.11 in10.0 miNNW (330°)4.6 mphClear
7:53 PM57.0 °F45.0 °F64 %30.13 in10.0 miCalmClear
8:53 PM53.1 °F45.0 °F74 %30.15 in10.0 miNorth (360°)4.6 mphClear
9:53 PM53.1 °F42.1 °F66 %30.17 in10.0 miNorth (360°)3.5 mphClear
10:53 PM48.9 °F41.0 °F74 %30.19 in10.0 miCalmClear
11:53 PM48.9 °F39.9 °F71 %30.20 in10.0 miNorth (360°)4.6 mphClear
Hourly data recorded from KVIH, located miles away from Rolla, Missouri







STORIES FROM OUR PARTNERS